Simultaneous Nadir Overpasses (SNOs) Predictions

Prediction of SNOs between AQUA and METOP-B Satellite Orbit:

Table of predicted SNOs for the next 14.0 days since TLE Epoch: 6/14/2019
Index Date (AQUA) Time (AQUA) Lat,Lon (AQUA) SZA (AQUA ) Date (METOP-B) Time (METOP-B) Lat,Lon (METOP-B) SZA (METOP-B ) Distance(km) Time Diff (sec)
1 06/17/2019 04:41:57 73.85, 103.73 50.50 06/17/2019 04:41:12 73.86, 103.83 50.51 2.96 45
2 06/17/2019 05:31:24 -73.91, -88.76 129.44 06/17/2019 05:31:53 -73.91, -88.71 129.45 1.28 29
3 06/20/2019 00:16:10 73.85, 170.19 50.44 06/20/2019 00:15:34 73.84, 170.20 50.44 0.59 36
4 06/20/2019 01:05:37 -73.90, -22.28 129.51 06/20/2019 01:06:15 -73.90, -22.34 129.51 1.84 38
5 06/22/2019 19:50:24 73.84,-123.36 50.43 06/22/2019 19:49:57 73.82,-123.43 50.43 2.96 27
6 06/22/2019 20:39:52 -73.94, 44.07 129.47 06/22/2019 20:40:37 -73.93, 44.14 129.48 2.52 45
7 06/25/2019 14:35:00 -73.26, 136.69 130.14 06/25/2019 14:33:53 -73.19, 134.18 130.10 80.91 67
8 06/25/2019 15:24:38 73.84, -56.92 50.49 06/25/2019 15:24:19 73.86, -56.95 50.51 1.79 19
9 06/25/2019 16:14:06 -73.93, 110.52 129.42 06/25/2019 16:15:00 -73.91, 110.51 129.44 1.93 54
10 06/28/2019 10:09:19 -73.56,-157.52 129.70 06/28/2019 10:08:08 -73.52,-158.68 129.69 36.84 71
11 06/28/2019 10:58:51 73.84, 9.51 50.60 06/28/2019 10:58:41 73.84, 9.41 50.60 3.29 10
12 06/28/2019 11:48:19 -73.92, 176.97 129.31 06/28/2019 11:49:21 -73.94, 176.99 129.30 1.95 62




NCC Satellite Simultaneous Nadir Overpasses (SNOs) Prediction Service
